Location: Bartshausen
(51.8454°N, 9.8167°E)
Time: 06:50:20
(UTC+00:00)

COSMO-SKYMED 1 - Pass Details

Date: 08 November 2025
Orbit: 579 x 581 km, 97.9° (Epoch: 11 December)

Event Time Altitude Azimuth Distance (km) Brightness Sun altitude
Rises 04:52:37 0° 174° (S) 2,796 6.1 -14.8°
Reaches altitude 10° 04:54:47 10° 179° (S) 1,900 5.2 -14.5°
Maximum altitude 04:58:51 58° 258° (WSW) 684 2.5 -13.9°
Drops below altitude 10° 05:02:57 10° 339° (NNW) 1,915 4.8 -13.2°
Sets 05:05:09 0° 343° (NNW) 2,819 5.7 -12.9°
